Torna al catalogo

SL-14 DEB

AttivoPO
NORAD 19139·DEBRIS·🇷🇺 Russia

Lanciato Oct 26, 1978 da Plesetsk Cosmodrome

Loading…

Prossimi Passaggi (prossime 24 ore)

TLE

AggiornatoSource: Space-Track

Epoca: Sep 14, 2026, 07:30 UTC

1 19139U 78100M   26257.31274610  .00000117  00000-0  18826-2 0  9991
2 19139  82.1485 345.3195 0151449 172.1489 299.2763 11.70455793637555

Traccia SL-14 DEB in tempo reale con AllMySat

Download on the App Store